Location: Moscow
(38.8570°N, 84.2291°W)
Time: 09:17:58
(UTC+00:00)

ISS - Visible Passes

Search period start: 20 January 2026 00:00
Search period end: 30 January 2026 00:00
Orbit: 413 x 424 km, 51.6° (Epoch: 19 January)

Date Brightness Start Highest point End Pass type
(mag) Time Alt. Az. Time Alt. Az. Time Alt. Az.
23 Jan -1.4 23:56:41 10° N 23:57:56 12° NNE 23:58:19 11° NNE visible
25 Jan -1.3 00:44:33 10° NNW 00:45:25 15° NNW 00:45:25 15° NNW visible
25 Jan -2.0 23:56:49 10° NNW 23:59:13 18° NNE 23:59:38 17° NNE visible
27 Jan -2.3 00:44:58 10° NW 00:46:55 31° NNW 00:46:55 31° NNW visible
27 Jan -3.0 23:57:03 10° NW 00:00:10 35° NNE 00:01:22 26° ENE visible
28 Jan -0.3 01:34:03 10° WNW 01:34:20 12° W 01:34:20 12° W visible
29 Jan -2.8 00:45:39 10° WNW 00:48:50 43° SW 00:49:00 43° SW visible
